Weather History for KAPY - November, 2011

Change the Weather History Date:

Tuesday, November 1, 2011

  Actual Average (KLRD) Record (KLRD)
Temperature  
Mean Temperature 68 °F 71 °F  
Max Temperature 86 °F 82 °F 97 °F (1934)
Min Temperature 51 °F 61 °F 30 °F (1913)
Degree Days  
Heating Degree Days 0 1  
Month to date heating degree days 1  
Since 1 July heating degree days 13  
Cooling Degree Days 4 7  
Month to date cooling degree days 7  
Year to date cooling degree days 4136  
Growing Degree Days 18 (Base 50)    
Moisture  
Dew Point 51 °F    
Average Humidity 55    
Maximum Humidity 88    
Minimum Humidity 25    
Precipitation  
Precipitation 0.00 in 0.05 in 2.20 in (1914)
Month to date precipitation 0.05  
Year to date precipitation 18.18  
Sea Level Pressure  
Sea Level Pressure 30.05 in    
Wind  
Wind Speed 6 mph (SE)    
Max Wind Speed 15 mph    
Max Gust Speed 22 mph    
Visibility 10 miles    
Events      
T = Trace of Precipitation, MM = Missing Value Source: NWS Daily Summary

Daily Weather History Graph

Daily Weather History Graph

Search for Another Location

Airport or City:

Trip Planner

Search our weather history database for the weather conditions in past years. The results will help you decide how hot, cold, wet, or windy it might be!

Date:

Astronomy

Nov. 01, 2011 Rise Set
Actual Time 7:46 AM CDT 6:54 PM CDT
Civil Twilight 7:22 AM CDT 7:18 PM CDT
Nautical Twilight 6:55 AM CDT 7:45 PM CDT
Astronomical Twilight 6:27 AM CDT 8:12 PM CDT
Moon 1:28 PM CDT (11/1) No Moon Set
Length of Visible Light 11h 55m
Length of Day
11h 07m
Waxing Crescent, 40% of the Moon is Illuminated
Nov 1
Waxing Crescent
Nov 2
First Quarter
Nov 10
Full
Nov 18
Last Quarter
Nov 25
New

Hourly Weather History & Observations

Time (CDT) Temp. Heat Index Dew Point Humidity Pressure Visibility Wind Dir Wind Speed Gust Speed Precip Events Conditions
12:15 AM 66.2 °F - 51.8 °F 60% 30.12 in 10.0 mi ESE 6.9 mph - N/A   Clear
12:35 AM 66.2 °F - 51.8 °F 60% 30.12 in 10.0 mi ESE 6.9 mph - N/A   Clear
12:55 AM 64.4 °F - 51.8 °F 64% 30.12 in 10.0 mi ESE 6.9 mph - N/A   Clear
1:15 AM 64.4 °F - 51.8 °F 64% 30.12 in 10.0 mi ESE 5.8 mph - N/A   Clear
1:35 AM 64.4 °F - 51.8 °F 64% 30.11 in 10.0 mi ESE 6.9 mph - N/A   Clear
1:55 AM 62.6 °F - 51.8 °F 68% 30.11 in 10.0 mi ESE 4.6 mph - N/A   Clear
2:15 AM 62.6 °F - 51.8 °F 68% 30.11 in 10.0 mi ESE 3.5 mph - N/A   Clear
2:35 AM 60.8 °F - 51.8 °F 72% 30.11 in 10.0 mi ESE 4.6 mph - N/A   Clear
2:55 AM 60.8 °F - 51.8 °F 72% 30.10 in 10.0 mi Calm Calm - N/A   Clear
3:15 AM 60.8 °F - 51.8 °F 72% 30.10 in 10.0 mi Calm Calm - N/A   Clear
3:35 AM 59.0 °F - 51.8 °F 77% 30.10 in 10.0 mi SE 3.5 mph - N/A   Clear
3:55 AM 59.0 °F - 51.8 °F 77% 30.09 in 10.0 mi ESE 3.5 mph - N/A   Clear
4:15 AM 59.0 °F - 51.8 °F 77% 30.08 in 10.0 mi ESE 3.5 mph - N/A   Clear
4:35 AM 57.2 °F - 51.8 °F 82% 30.08 in 10.0 mi Calm Calm - N/A   Clear
4:55 AM 55.4 °F - 50.0 °F 82% 30.08 in 10.0 mi Calm Calm - N/A   Clear
5:15 AM 51.8 °F - 48.2 °F 88% 30.07 in 10.0 mi Calm Calm - N/A   Clear
5:35 AM 53.6 °F - 48.2 °F 82% 30.07 in 10.0 mi Calm Calm - N/A   Clear
5:55 AM 51.8 °F - 46.4 °F 82% 30.07 in 10.0 mi Calm Calm - N/A   Clear
6:15 AM 53.6 °F - 50.0 °F 88% 30.07 in 10.0 mi East 3.5 mph - N/A   Clear
6:35 AM 53.6 °F - 50.0 °F 88% 30.07 in 10.0 mi ESE 3.5 mph - N/A   Clear
6:55 AM 53.6 °F - 50.0 °F 88% 30.07 in 10.0 mi Calm Calm - N/A   Clear
7:15 AM 55.4 °F - 50.0 °F 82% 30.08 in 10.0 mi Calm Calm - N/A   Clear
7:35 AM 55.4 °F - 51.8 °F 88% 30.08 in 10.0 mi Calm Calm - N/A   Clear
7:55 AM 53.6 °F - 50.0 °F 88% 30.08 in 10.0 mi Calm Calm - N/A   Clear
8:15 AM 53.6 °F - 46.4 °F 77% 30.09 in 10.0 mi Calm Calm - N/A   Clear
8:35 AM 57.2 °F - 50.0 °F 77% 30.10 in 10.0 mi Calm Calm - N/A   Clear
8:55 AM 62.6 °F - 53.6 °F 72% 30.10 in 10.0 mi Calm Calm - N/A   Clear
9:15 AM 64.4 °F - 53.6 °F 68% 30.11 in 10.0 mi Calm Calm - N/A   Clear
9:35 AM 68.0 °F - 53.6 °F 60% 30.11 in 10.0 mi SE 5.8 mph - N/A   Clear
9:55 AM 69.8 °F - 53.6 °F 56% 30.12 in 10.0 mi SE 5.8 mph - N/A   Clear
10:15 AM 71.6 °F - 53.6 °F 53% 30.12 in 10.0 mi SSE 8.1 mph - N/A   Clear
10:35 AM 73.4 °F - 53.6 °F 50% 30.12 in 10.0 mi SSE 8.1 mph - N/A   Clear
10:55 AM 75.2 °F - 55.4 °F 50% 30.11 in 10.0 mi SSE 9.2 mph - N/A   Clear
11:15 AM 77.0 °F - 53.6 °F 44% 30.11 in 10.0 mi South 10.4 mph - N/A   Clear
11:35 AM 77.0 °F - 53.6 °F 44% 30.10 in 10.0 mi SSE 10.4 mph - N/A   Clear
11:55 AM 78.8 °F - 51.8 °F 39% 30.10 in 10.0 mi SE 8.1 mph - N/A   Clear
12:15 PM 78.8 °F - 51.8 °F 39% 30.09 in 10.0 mi SSE 6.9 mph 18.4 mph N/A   Clear
12:35 PM 80.6 °F 80.3 °F 53.6 °F 39% 30.07 in 10.0 mi South 6.9 mph - N/A   Clear
12:55 PM 80.6 °F 80.3 °F 53.6 °F 39% 30.06 in 10.0 mi SW 8.1 mph - N/A   Clear
1:15 PM 80.6 °F 80.3 °F 53.6 °F 39% 30.05 in 10.0 mi WSW 5.8 mph 18.4 mph N/A   Clear
1:35 PM 80.6 °F 80.3 °F 53.6 °F 39% 30.04 in 10.0 mi South 8.1 mph - N/A   Clear
1:55 PM 80.6 °F 80.3 °F 53.6 °F 39% 30.02 in 10.0 mi SSW 9.2 mph - N/A   Clear
2:15 PM 82.4 °F 81.4 °F 53.6 °F 37% 30.02 in 10.0 mi SSW 6.9 mph - N/A   Clear
2:35 PM 84.2 °F - 51.8 °F 33% 30.00 in 10.0 mi SSE 10.4 mph - N/A   Clear
2:55 PM 84.2 °F - 51.8 °F 33% 29.99 in 10.0 mi SSE 8.1 mph 17.3 mph N/A   Clear
3:15 PM 86.0 °F - 48.2 °F 27% 29.99 in 10.0 mi SSE 15.0 mph 20.7 mph N/A   Clear
3:35 PM 86.0 °F - 50.0 °F 29% 29.98 in 10.0 mi South 9.2 mph 16.1 mph N/A   Clear
4:15 PM 86.0 °F - 48.2 °F 27% 29.97 in 10.0 mi SSE 10.4 mph 21.9 mph N/A   Clear
4:35 PM 86.0 °F - 48.2 °F 27% 29.97 in 10.0 mi SE 9.2 mph 16.1 mph N/A   Clear
4:55 PM 86.0 °F - 46.4 °F 25% 29.97 in 10.0 mi SE 12.7 mph 17.3 mph N/A   Clear
5:15 PM 86.0 °F - 48.2 °F 27% 29.97 in 10.0 mi SE 12.7 mph 17.3 mph N/A   Clear
5:35 PM 84.2 °F - 50.0 °F 30% 29.97 in 10.0 mi SE 10.4 mph 19.6 mph N/A   Clear
5:55 PM 82.4 °F - 50.0 °F 32% 29.97 in 10.0 mi SE 10.4 mph - N/A   Clear
6:15 PM 82.4 °F - 50.0 °F 32% 29.97 in 10.0 mi ESE 10.4 mph 19.6 mph N/A   Clear
6:35 PM 82.4 °F - 50.0 °F 32% 29.97 in 10.0 mi ESE 10.4 mph 17.3 mph N/A   Clear
6:55 PM 80.6 °F - 50.0 °F 34% 29.97 in 10.0 mi ESE 8.1 mph - N/A   Clear
7:15 PM 78.8 °F - 50.0 °F 36% 29.97 in 10.0 mi ESE 6.9 mph - N/A   Clear
7:35 PM 77.0 °F - 50.0 °F 39% 29.97 in 10.0 mi ESE 6.9 mph - N/A   Clear
7:55 PM 77.0 °F - 50.0 °F 39% 29.98 in 10.0 mi ESE 8.1 mph - N/A   Clear
8:15 PM 77.0 °F - 50.0 °F 39% 29.98 in 10.0 mi ESE 8.1 mph - N/A   Clear
8:35 PM 75.2 °F - 50.0 °F 41% 29.98 in 10.0 mi ESE 6.9 mph - N/A   Clear
8:55 PM 73.4 °F - 50.0 °F 44% 29.98 in 10.0 mi ESE 8.1 mph - N/A   Clear
9:15 PM 73.4 °F - 51.8 °F 47% 29.99 in 10.0 mi ESE 13.8 mph 18.4 mph N/A   Clear
9:35 PM 73.4 °F - 53.6 °F 50% 29.99 in 10.0 mi ESE 15.0 mph 20.7 mph N/A   Clear
9:55 PM 73.4 °F - 53.6 °F 50% 30.00 in 10.0 mi ESE 11.5 mph 20.7 mph N/A   Clear
10:15 PM 71.6 °F - 53.6 °F 53% 30.00 in 10.0 mi ESE 11.5 mph 20.7 mph N/A   Clear
10:35 PM 71.6 °F - 53.6 °F 53% 30.00 in 10.0 mi ESE 11.5 mph 16.1 mph N/A   Clear
11:15 PM 69.8 °F - 53.6 °F 56% 30.00 in 10.0 mi SE 9.2 mph - N/A   Clear
11:35 PM 69.8 °F - 53.6 °F 56% 30.00 in 10.0 mi SE 8.1 mph - N/A   Clear
11:55 PM 69.8 °F - 55.4 °F 60% 30.00 in 10.0 mi SE 9.2 mph 17.3 mph N/A   Clear